| time (UTC) | temp C | wind direction | speed KPH | gust KPH | rain 1hr cm | rain 24hr cm | rain mn cm | humidity % | barometer mb |
| 20260506000032 | 28 | 51 | 4.8 | 11.3 | 0.00 | 0.00 | 0.00 | 31 | 1009.7 |
| 20260505234555 | 28 | 5 | 4.8 | 12.9 | 0.00 | 0.00 | 0.00 | 31 | 1009.8 |
| 20260505233037 | 28 | 345 | 8.0 | 19.3 | 0.00 | 0.00 | 0.00 | 30 | 1009.9 |
| 20260505231534 | 28 | 298 | 4.8 | 14.5 | 0.00 | 0.00 | 0.00 | 32 | 1010.0 |
| 20260505230040 | 27 | 0 | 3.2 | 16.1 | 0.00 | 0.00 | 0.00 | 32 | 1010.1 |
| 20260505224539 | 28 | 352 | 4.8 | 17.7 | 0.00 | 0.00 | 0.00 | 34 | 1010.1 |
| 20260505223035 | 27 | 28 | 4.8 | 12.9 | 0.00 | 0.00 | 0.00 | 35 | 1010.4 |
| 20260505221532 | 27 | 47 | 4.8 | 16.1 | 0.00 | 0.00 | 0.00 | 37 | 1010.4 |
| 20260505220046 | 27 | 311 | 8.0 | 14.5 | 0.00 | 0.00 | 0.00 | 37 | 1010.6 |
| 20260505214538 | 27 | 44 | 9.7 | 16.1 | 0.00 | 0.00 | 0.00 | 37 | 1010.8 |
| 20260505213036 | 27 | 44 | 4.8 | 14.5 | 0.00 | 0.00 | 0.00 | 40 | 1010.8 |
| 20260505211545 | 26 | 42 | 4.8 | 17.7 | 0.00 | 0.00 | 0.00 | 43 | 1010.9 |
| 20260505210031 | 26 | 332 | 6.4 | 17.7 | 0.00 | 0.00 | 0.00 | 43 | 1011.0 |
| 20260505204535 | 26 | 34 | 8.0 | 14.5 | 0.00 | 0.00 | 0.00 | 44 | 1011.1 |
| 20260505203037 | 26 | 307 | 8.0 | 16.1 | 0.00 | 0.00 | 0.00 | 44 | 1011.2 |
| 20260505201537 | 25 | 326 | 11.3 | 17.7 | 0.00 | 0.00 | 0.00 | 45 | 1011.2 |
| 20260505200035 | 25 | 309 | 11.3 | 20.9 | 0.00 | 0.00 | 0.00 | 46 | 1011.4 |
| 20260505194536 | 25 | 299 | 6.4 | 16.1 | 0.00 | 0.00 | 0.00 | 50 | 1011.3 |
| 20260505193041 | 24 | 330 | 6.4 | 17.7 | 0.00 | 0.00 | 0.00 | 51 | 1011.4 |
| 20260505191544 | 23 | 284 | 8.0 | 16.1 | 0.00 | 0.00 | 0.00 | 54 | 1011.5 |
| 20260505190035 | 23 | 288 | 8.0 | 16.1 | 0.00 | 0.00 | 0.00 | 54 | 1011.6 |
| 20260505184535 | 22 | 322 | 8.0 | 16.1 | 0.00 | 0.00 | 0.00 | 55 | 1011.7 |
| 20260505183032 | 22 | 302 | 9.7 | 16.1 | 0.00 | 0.00 | 0.00 | 56 | 1011.7 |
| 20260505181534 | 22 | 309 | 6.4 | 14.5 | 0.00 | 0.00 | 0.00 | 57 | 1011.7 |
| 20260505180044 | 21 | 318 | 8.0 | 16.1 | 0.00 | 0.00 | 0.00 | 58 | 1011.7 |
| 20260505174539 | 21 | 329 | 8.0 | 16.1 | 0.00 | 0.00 | 0.00 | 61 | 1011.7 |
| 20260505173036 | 20 | 313 | 8.0 | 12.9 | 0.00 | 0.00 | 0.00 | 59 | 1011.7 |
| 20260505171535 | 20 | 331 | 8.0 | 22.5 | 0.00 | 0.00 | 0.00 | 61 | 1011.6 |
| 20260505170035 | 19 | 345 | 6.4 | 12.9 | 0.00 | 0.00 | 0.00 | 63 | 1011.6 |
| 20260505164532 | 18 | 346 | 3.2 | 12.9 | 0.00 | 0.00 | 0.00 | 64 | 1011.6 |
| 20260505163040 | 18 | 346 | 4.8 | 9.7 | 0.00 | 0.00 | 0.00 | 65 | 1011.5 |
| 20260505161535 | 18 | 346 | 4.8 | 12.9 | 0.00 | 0.00 | 0.00 | 64 | 1011.4 |
| 20260505153046 | 16 | 346 | 4.8 | 12.9 | 0.00 | 0.00 | 0.00 | 66 | 1011.1 |
| 20260505151539 | 16 | 346 | 4.8 | 12.9 | 0.00 | 0.00 | 0.00 | 66 | 1011.0 |
| 20260505124535 | 12 | 332 | 6.4 | 12.9 | 0.00 | 0.00 | 0.00 | 74 | 1009.2 |
| 20260505123051 | 12 | 332 | 4.8 | 12.9 | 0.00 | 0.00 | 0.00 | 74 | 1009.0 |
| 20260505121530 | 12 | 328 | 6.4 | 16.1 | 0.00 | 0.00 | 0.00 | 75 | 1008.9 |
| 20260505120035 | 12 | 313 | 6.4 | 12.9 | 0.00 | 0.00 | 0.00 | 75 | 1008.8 |
| 20260505114543 | 12 | 311 | 4.8 | 9.7 | 0.00 | 0.00 | 0.00 | 74 | 1008.6 |
| 20260505113037 | 12 | 311 | 4.8 | 12.9 | 0.00 | 0.00 | 0.00 | 75 | 1008.4 |
| 20260505111551 | 12 | 306 | 6.4 | 12.9 | 0.00 | 0.00 | 0.00 | 74 | 1008.3 |
| 20260505101536 | 14 | 306 | 3.2 | 8.0 | 0.00 | 0.00 | 0.00 | 73 | 1007.7 |
| 20260505100035 | 14 | 306 | 3.2 | 6.4 | 0.00 | 0.00 | 0.00 | 73 | 1007.4 |
| 20260505094530 | 14 | 306 | 4.8 | 6.4 | 0.00 | 0.00 | 0.00 | 73 | 1007.3 |
| 20260505093036 | 15 | 306 | 3.2 | 6.4 | 0.00 | 0.00 | 0.00 | 71 | 1007.2 |
| 20260505091537 | 16 | 306 | 3.2 | 8.0 | 0.00 | 0.00 | 0.00 | 69 | 1007.1 |
| 20260505090034 | 16 | 0 | 0.0 | 0.0 | 0.00 | 0.00 | 0.00 | 66 | 1007.2 |
| 20260505084532 | 16 | 0 | 0.0 | 6.4 | 0.00 | 0.00 | 0.00 | 69 | 1007.2 |
| 20260505083041 | 16 | 306 | 1.6 | 6.4 | 0.00 | 0.00 | 0.00 | 70 | 1007.1 |
| 20260505081537 | 16 | 306 | 4.8 | 6.4 | 0.00 | 0.00 | 0.00 | 68 | 1007.0 |
| 20260505080039 | 16 | 306 | 3.2 | 6.4 | 0.00 | 0.00 | 0.00 | 67 | 1007.0 |
| 20260505074533 | 17 | 306 | 4.8 | 11.3 | 0.00 | 0.00 | 0.00 | 65 | 1006.9 |
| 20260505073033 | 17 | 306 | 3.2 | 6.4 | 0.00 | 0.00 | 0.00 | 64 | 1006.6 |
| 20260505071537 | 18 | 306 | 4.8 | 8.0 | 0.00 | 0.00 | 0.00 | 61 | 1006.5 |
| 20260505070038 | 17 | 306 | 3.2 | 6.4 | 0.00 | 0.00 | 0.00 | 61 | 1006.4 |
| 20260505064550 | 17 | 306 | 3.2 | 6.4 | 0.00 | 0.00 | 0.00 | 62 | 1006.2 |
| 20260505063031 | 18 | 306 | 4.8 | 11.3 | 0.00 | 0.00 | 0.00 | 59 | 1006.1 |
| 20260505061539 | 20 | 0 | 0.0 | 0.0 | 0.00 | 0.00 | 0.00 | 54 | 1006.0 |
| 20260505060032 | 20 | 0 | 0.0 | 6.4 | 0.00 | 0.00 | 0.00 | 53 | 1006.0 |
| 20260505054531 | 20 | 293 | 6.4 | 11.3 | 0.00 | 0.00 | 0.00 | 55 | 1006.1 |
| 20260505053032 | 18 | 44 | 4.8 | 8.0 | 0.00 | 0.00 | 0.00 | 59 | 1006.1 |
| 20260505051536 | 19 | 44 | 3.2 | 6.4 | 0.00 | 0.00 | 0.00 | 56 | 1005.7 |
| 20260505041534 | 21 | 44 | 3.2 | 8.0 | 0.00 | 0.00 | 0.00 | 47 | 1005.3 |
| 20260505040030 | 22 | 44 | 3.2 | 16.1 | 0.00 | 0.00 | 0.00 | 46 | 1005.1 |
| 20260505034534 | 23 | 335 | 3.2 | 6.4 | 0.00 | 0.00 | 0.00 | 42 | 1004.9 |
| 20260505033036 | 22 | 335 | 4.8 | 8.0 | 0.00 | 0.00 | 0.00 | 48 | 1004.9 |
| 20260505031532 | 23 | 335 | 4.8 | 8.0 | 0.00 | 0.00 | 0.00 | 51 | 1004.7 |
| 20260505030032 | 24 | 336 | 3.2 | 6.4 | 0.00 | 0.00 | 0.00 | 43 | 1004.6 |
| 20260505024542 | 25 | 336 | 3.2 | 6.4 | 0.00 | 0.00 | 0.00 | 44 | 1004.6 |
| 20260505023044 | 27 | 0 | 0.0 | 0.0 | 0.00 | 0.00 | 0.00 | 37 | 1004.6 |
| 20260505021539 | 28 | 0 | 0.0 | 4.8 | 0.00 | 0.00 | 0.00 | 35 | 1004.7 |
| 20260505020033 | 29 | 336 | 1.6 | 6.4 | 0.00 | 0.00 | 0.00 | 31 | 1004.7 |
| 20260505014538 | 29 | 336 | 4.8 | 8.0 | 0.00 | 0.00 | 0.00 | 29 | 1004.8 |
| 20260505013033 | 30 | 336 | 6.4 | 12.9 | 0.00 | 0.00 | 0.00 | 27 | 1005.0 |
| 20260505011535 | 30 | 344 | 3.2 | 14.5 | 0.00 | 0.00 | 0.00 | 27 | 1005.0 |
| 20260505010036 | 30 | 333 | 3.2 | 12.9 | 0.00 | 0.00 | 0.00 | 26 | 1005.2 |
| 20260505004532 | 30 | 322 | 4.8 | 16.1 | 0.00 | 0.00 | 0.00 | 27 | 1005.2 |
| 20260505003032 | 30 | 349 | 8.0 | 17.7 | 0.00 | 0.00 | 0.00 | 26 | 1005.3 |
| 20260505001546 | 30 | 350 | 4.8 | 16.1 | 0.00 | 0.00 | 0.00 | 28 | 1005.3 |